| time (UTC) | temp F | wind direction | speed MPH | gust MPH | rain 1hr in | rain 24hr in | rain mn in | humidity % | barometer mb |
| 20260510204758 | 73 | 294 | 1.0 | 0.0 | 0.00 | 0.13 | 0.01 | 59 | 1012.6 |
| 20260510203740 | 74 | 294 | 1.0 | 0.0 | 0.00 | 0.13 | 0.01 | 56 | 1012.6 |
| 20260510202723 | 75 | 298 | 1.0 | 0.0 | 0.00 | 0.13 | 0.01 | 56 | 1012.5 |
| 20260510201706 | 75 | 290 | 1.0 | 0.0 | 0.00 | 0.13 | 0.01 | 55 | 1012.5 |
| 20260510200617 | 76 | 292 | 1.0 | 0.0 | 0.00 | 0.13 | 0.01 | 56 | 1012.6 |
| 20260510195600 | 76 | 308 | 1.0 | 0.0 | 0.00 | 0.13 | 0.01 | 55 | 1012.6 |
| 20260510194542 | 76 | 316 | 1.0 | 0.0 | 0.00 | 0.13 | 0.01 | 55 | 1012.7 |
| 20260510193740 | 76 | 316 | 1.0 | 0.0 | 0.00 | 0.13 | 0.01 | 55 | 1012.8 |
| 20260510192721 | 76 | 312 | 2.0 | 0.0 | 0.00 | 0.13 | 0.01 | 55 | 1012.8 |
| 20260510191453 | 76 | 318 | 2.0 | 0.0 | 0.00 | 0.13 | 0.01 | 55 | 1012.9 |
| 20260510190434 | 75 | 320 | 2.0 | 0.0 | 0.00 | 0.13 | 0.01 | 55 | 1012.9 |
| 20260510185630 | 75 | 292 | 2.0 | 7.0 | 0.00 | 0.13 | 0.01 | 54 | 1013.0 |
| 20260510184612 | 76 | 290 | 1.0 | 7.0 | 0.00 | 0.13 | 0.01 | 54 | 1013.0 |
| 20260510183553 | 77 | 292 | 1.0 | 7.0 | 0.00 | 0.13 | 0.01 | 54 | 1012.9 |
| 20260510182324 | 76 | 288 | 2.0 | 8.0 | 0.01 | 0.13 | 0.01 | 54 | 1012.9 |
| 20260510181308 | 76 | 290 | 2.0 | 7.0 | 0.01 | 0.13 | 0.01 | 55 | 1013.0 |
| 20260510180219 | 76 | 280 | 2.0 | 8.0 | 0.01 | 0.13 | 0.01 | 56 | 1012.9 |
| 20260510175418 | 76 | 218 | 2.0 | 0.0 | 0.01 | 0.13 | 0.01 | 58 | 1013.0 |
| 20260510174144 | 75 | 263 | 1.0 | 7.0 | 0.01 | 0.13 | 0.01 | 59 | 1013.0 |
| 20260510173127 | 75 | 270 | 1.0 | 0.0 | 0.01 | 0.13 | 0.01 | 60 | 1013.0 |
| 20260510172111 | 74 | 280 | 2.0 | 0.0 | 0.00 | 0.12 | 0.00 | 62 | 1012.9 |
| 20260510171052 | 74 | 280 | 1.0 | 7.0 | 0.00 | 0.12 | 0.00 | 63 | 1013.0 |
| 20260510170050 | 73 | 207 | 1.0 | 0.0 | 0.00 | 0.12 | 0.00 | 65 | 1013.0 |
| 20260510165016 | 73 | 286 | 1.0 | 0.0 | 0.00 | 0.12 | 0.00 | 66 | 1013.1 |
| 20260510163931 | 72 | 152 | 1.0 | 4.0 | 0.00 | 0.12 | 0.00 | 68 | 1013.2 |
| 20260510162914 | 70 | 36 | 1.0 | 0.0 | 0.00 | 0.12 | 0.00 | 71 | 1013.2 |
| 20260510161858 | 70 | 0 | 1.0 | 0.0 | 0.00 | 0.12 | 0.00 | 72 | 1013.2 |
| 20260510160839 | 68 | 0 | 1.0 | 0.0 | 0.00 | 0.12 | 0.00 | 74 | 1013.3 |
| 20260510155822 | 67 | 165 | 1.0 | 3.0 | 0.00 | 0.12 | 0.00 | 77 | 1013.5 |
| 20260510154805 | 66 | 230 | 1.0 | 5.0 | 0.00 | 0.12 | 0.00 | 78 | 1013.6 |
| 20260510153748 | 65 | 192 | 1.0 | 3.0 | 0.00 | 0.12 | 0.00 | 80 | 1013.6 |
| 20260510152727 | 64 | 174 | 1.0 | 3.0 | 0.00 | 0.12 | 0.00 | 83 | 1013.6 |
| 20260510151925 | 63 | 201 | 0.0 | 4.0 | 0.00 | 0.12 | 0.00 | 85 | 1013.6 |
| 20260510150653 | 62 | 201 | 0.0 | 4.0 | 0.00 | 0.12 | 0.00 | 87 | 1013.6 |
| 20260510145635 | 61 | 152 | 0.0 | 3.0 | 0.00 | 0.12 | 0.00 | 89 | 1013.6 |
| 20260510144833 | 60 | 198 | 0.0 | 0.0 | 0.00 | 0.12 | 0.00 | 90 | 1013.6 |
| 20260510143602 | 59 | 198 | 0.0 | 0.0 | 0.00 | 0.12 | 0.00 | 91 | 1013.7 |
| 20260510142757 | 58 | 127 | 0.0 | 2.0 | 0.00 | 0.12 | 0.00 | 92 | 1013.6 |
| 20260510141525 | 58 | 0 | 0.0 | 0.0 | 0.00 | 0.12 | 0.00 | 93 | 1013.6 |
| 20260510140509 | 57 | 0 | 0.0 | 0.0 | 0.00 | 0.12 | 0.00 | 94 | 1013.6 |
| 20260510135705 | 57 | 0 | 0.0 | 0.0 | 0.00 | 0.12 | 0.00 | 94 | 1013.4 |
| 20260510134433 | 56 | 60 | 0.0 | 0.0 | 0.00 | 0.12 | 0.00 | 94 | 1013.5 |
| 20260510133417 | 56 | 170 | 0.0 | 3.0 | 0.00 | 0.12 | 0.00 | 94 | 1013.5 |
| 20260510132400 | 55 | 154 | 0.0 | 2.0 | 0.00 | 0.12 | 0.00 | 95 | 1013.6 |
| 20260510131531 | 55 | 154 | 0.0 | 2.0 | 0.00 | 0.12 | 0.00 | 95 | 1013.5 |
| 20260510130236 | 54 | 154 | 0.0 | 2.0 | 0.00 | 0.12 | 0.00 | 95 | 1013.4 |
| 20260510125433 | 54 | 40 | 0.0 | 0.0 | 0.00 | 0.12 | 0.00 | 95 | 1013.2 |
| 20260510124201 | 53 | 64 | 0.0 | 0.0 | 0.00 | 0.12 | 0.00 | 96 | 1013.1 |
| 20260510123144 | 53 | 64 | 0.0 | 0.0 | 0.00 | 0.12 | 0.00 | 96 | 1013.1 |
| 20260510122341 | 53 | 40 | 0.0 | 0.0 | 0.00 | 0.12 | 0.00 | 95 | 1013.1 |
| 20260510121111 | 53 | 110 | 0.0 | 0.0 | 0.00 | 0.12 | 0.00 | 95 | 1012.9 |
| 20260510120048 | 53 | 24 | 0.0 | 0.0 | 0.00 | 0.12 | 0.00 | 95 | 1012.8 |
| 20260510115031 | 52 | 24 | 0.0 | 0.0 | 0.00 | 0.12 | 0.00 | 95 | 1012.7 |
| 20260510114005 | 52 | 30 | 0.0 | 0.0 | 0.00 | 0.12 | 0.00 | 96 | 1012.7 |
| 20260510112947 | 52 | 28 | 0.0 | 0.0 | 0.00 | 0.12 | 0.00 | 96 | 1012.6 |
| 20260510112147 | 52 | 0.0 | 0.0 | 0.00 | 0.12 | 0.00 | 96 | 1012.6 | |
| 20260510110913 | 51 | 0 | 0.0 | 0.0 | 0.00 | 0.12 | 0.00 | 95 | 1012.4 |
| 20260510105856 | 51 | 42 | 0.0 | 0.0 | 0.00 | 0.12 | 0.00 | 96 | 1012.3 |
| 20260510105055 | 51 | 42 | 0.0 | 0.0 | 0.00 | 0.12 | 0.00 | 95 | 1012.2 |
| 20260510103820 | 51 | 42 | 0.0 | 0.0 | 0.00 | 0.12 | 0.00 | 95 | 1012.1 |
| 20260510102801 | 51 | 48 | 0.0 | 0.0 | 0.00 | 0.12 | 0.00 | 95 | 1012.1 |
| 20260510101741 | 51 | 8 | 0.0 | 0.0 | 0.00 | 0.12 | 0.00 | 95 | 1012.1 |
| 20260510100724 | 51 | 0 | 0.0 | 0.0 | 0.00 | 0.12 | 0.00 | 95 | 1012.0 |
| 20260510095707 | 51 | 342 | 0.0 | 0.0 | 0.00 | 0.12 | 0.00 | 95 | 1011.9 |
| 20260510094649 | 51 | 344 | 0.0 | 0.0 | 0.00 | 0.12 | 0.00 | 96 | 1011.9 |
| 20260510093630 | 51 | 340 | 0.0 | 0.0 | 0.00 | 0.12 | 0.00 | 96 | 1012.0 |
| 20260510092613 | 51 | 344 | 0.0 | 0.0 | 0.00 | 0.12 | 0.00 | 96 | 1011.9 |
| 20260510091557 | 50 | 354 | 0.0 | 0.0 | 0.00 | 0.12 | 0.00 | 96 | 1011.9 |
| 20260510090513 | 50 | 137 | 0.0 | 2.0 | 0.00 | 0.12 | 0.00 | 95 | 1011.9 |
| 20260510085711 | 50 | 137 | 0.0 | 2.0 | 0.00 | 0.12 | 0.00 | 96 | 1011.6 |
| 20260510084653 | 49 | 139 | 0.0 | 1.0 | 0.00 | 0.12 | 0.00 | 96 | 1011.5 |
| 20260510083626 | 49 | 272 | 0.0 | 0.0 | 0.00 | 0.12 | 0.00 | 96 | 1011.6 |
| 20260510082356 | 49 | 342 | 0.0 | 0.0 | 0.00 | 0.12 | 0.00 | 96 | 1011.5 |
| 20260510081340 | 49 | 340 | 0.0 | 0.0 | 0.00 | 0.12 | 0.00 | 96 | 1011.5 |
| 20260510080539 | 49 | 338 | 0.0 | 0.0 | 0.00 | 0.12 | 0.00 | 96 | 1011.4 |
| 20260510075306 | 49 | 332 | 0.0 | 0.0 | 0.00 | 0.12 | 0.00 | 94 | 1011.3 |
| 20260510074502 | 49 | 332 | 0.0 | 0.0 | 0.00 | 0.12 | 0.00 | 94 | 1011.3 |
| 20260510073443 | 49 | 340 | 0.0 | 0.0 | 0.00 | 0.12 | 0.00 | 94 | 1011.3 |
| 20260510072214 | 48 | 330 | 0.0 | 0.0 | 0.00 | 0.12 | 0.00 | 94 | 1011.2 |
| 20260510071156 | 49 | 332 | 0.0 | 0.0 | 0.00 | 0.12 | 0.00 | 94 | 1011.1 |
| 20260510070130 | 48 | 340 | 0.0 | 0.0 | 0.00 | 0.12 | 0.00 | 94 | 1011.1 |
| 20260510065111 | 48 | 340 | 0.0 | 0.0 | 0.00 | 0.12 | 0.00 | 94 | 1010.9 |
| 20260510064055 | 48 | 340 | 0.0 | 0.0 | 0.00 | 0.12 | 0.00 | 94 | 1010.9 |
| 20260510063252 | 49 | 272 | 0.0 | 0.0 | 0.00 | 0.12 | 0.00 | 94 | 1010.9 |
| 20260510062021 | 48 | 68 | 0.0 | 0.0 | 0.00 | 0.12 | 0.00 | 94 | 1011.0 |
| 20260510061004 | 48 | 68 | 0.0 | 0.0 | 0.00 | 0.12 | 0.00 | 94 | 1011.0 |
| 20260510055945 | 49 | 331 | 0.0 | 0.0 | 0.00 | 0.12 | 0.00 | 94 | 1011.1 |
| 20260510054926 | 49 | 68 | 0.0 | 0.0 | 0.00 | 0.12 | 0.00 | 94 | 1011.2 |
| 20260510053910 | 49 | 68 | 0.0 | 0.0 | 0.00 | 0.12 | 0.00 | 94 | 1011.2 |
| 20260510052853 | 49 | 0 | 0.0 | 0.0 | 0.00 | 0.12 | 0.00 | 94 | 1011.2 |
| 20260510051810 | 50 | 0 | 0.0 | 0.0 | 0.00 | 0.12 | 0.00 | 94 | 1011.2 |
| 20260510050753 | 50 | 0 | 0.0 | 0.0 | 0.00 | 0.12 | 0.00 | 94 | 1011.3 |
| 20260510045949 | 50 | 0 | 0.0 | 0.0 | 0.00 | 0.12 | 0.00 | 94 | 1011.4 |
| 20260510044717 | 50 | 0 | 0.0 | 0.0 | 0.00 | 0.12 | 0.00 | 94 | 1011.4 |
| 20260510043658 | 50 | 0 | 0.0 | 0.0 | 0.00 | 0.12 | 0.00 | 94 | 1011.5 |
| 20260510042854 | 50 | 340 | 0.0 | 0.0 | 0.00 | 0.12 | 0.00 | 94 | 1011.5 |
| 20260510041615 | 50 | 342 | 0.0 | 0.0 | 0.00 | 0.12 | 0.00 | 93 | 1011.5 |
| 20260510040551 | 50 | 280 | 0.0 | 0.0 | 0.00 | 0.12 | 0.00 | 93 | 1011.5 |
| 20260510035534 | 50 | 0 | 0.0 | 0.0 | 0.00 | 0.12 | 0.12 | 93 | 1011.3 |
| 20260510034732 | 49 | 2 | 0.0 | 0.0 | 0.00 | 0.12 | 0.12 | 93 | 1011.2 |
| 20260510033457 | 49 | 87 | 0.0 | 0.0 | 0.00 | 0.12 | 0.12 | 93 | 1011.1 |
| 20260510032439 | 50 | 98 | 0.0 | 0.0 | 0.00 | 0.12 | 0.12 | 93 | 1011.2 |
| 20260510031420 | 50 | 0 | 0.0 | 0.0 | 0.00 | 0.12 | 0.12 | 93 | 1011.1 |
| 20260510030613 | 50 | 0 | 0.0 | 0.0 | 0.00 | 0.12 | 0.12 | 93 | 1011.2 |
| 20260510025555 | 50 | 8 | 0.0 | 0.0 | 0.00 | 0.12 | 0.12 | 92 | 1011.0 |
| 20260510024536 | 50 | 8 | 0.0 | 0.0 | 0.00 | 0.12 | 0.12 | 92 | 1011.1 |
| 20260510023305 | 50 | 12 | 0.0 | 0.0 | 0.00 | 0.12 | 0.12 | 92 | 1011.1 |
| 20260510022245 | 50 | 10 | 0.0 | 0.0 | 0.00 | 0.12 | 0.12 | 92 | 1011.0 |
| 20260510021441 | 51 | 16 | 0.0 | 0.0 | 0.00 | 0.12 | 0.12 | 92 | 1011.0 |
| 20260510020211 | 51 | 10 | 0.0 | 0.0 | 0.00 | 0.12 | 0.12 | 92 | 1011.0 |
| 20260510015151 | 51 | 0 | 0.0 | 0.0 | 0.00 | 0.12 | 0.12 | 92 | 1011.0 |
| 20260510014134 | 51 | 0 | 0.0 | 0.0 | 0.00 | 0.12 | 0.12 | 92 | 1011.1 |
| 20260510013116 | 51 | 0 | 0.0 | 0.0 | 0.00 | 0.12 | 0.12 | 92 | 1011.1 |
| 20260510012033 | 52 | 0 | 0.0 | 0.0 | 0.00 | 0.12 | 0.12 | 91 | 1010.9 |
| 20260510011007 | 52 | 0 | 0.0 | 0.0 | 0.00 | 0.12 | 0.12 | 91 | 1010.7 |
| 20260510005948 | 52 | 128 | 0.0 | 1.0 | 0.00 | 0.12 | 0.12 | 91 | 1010.6 |
| 20260510004932 | 53 | 0 | 0.0 | 0.0 | 0.00 | 0.12 | 0.12 | 91 | 1010.6 |
| 20260510003915 | 53 | 24 | 0.0 | 0.0 | 0.00 | 0.12 | 0.12 | 91 | 1010.5 |
| 20260510002854 | 53 | 24 | 0.0 | 0.0 | 0.00 | 0.12 | 0.12 | 91 | 1010.5 |
| 20260510001812 | 54 | 20 | 0.0 | 0.0 | 0.00 | 0.12 | 0.12 | 90 | 1010.5 |
| 20260510000755 | 54 | 14 | 0.0 | 0.0 | 0.00 | 0.12 | 0.12 | 90 | 1010.4 |
| 20260509235738 | 55 | 68 | 0.0 | 0.0 | 0.00 | 0.12 | 0.12 | 90 | 1010.3 |
| 20260509234721 | 55 | 70 | 0.0 | 0.0 | 0.00 | 0.12 | 0.12 | 90 | 1010.3 |
| 20260509233705 | 56 | 70 | 0.0 | 0.0 | 0.00 | 0.12 | 0.12 | 89 | 1010.3 |
| 20260509232648 | 56 | 72 | 0.0 | 0.0 | 0.00 | 0.12 | 0.12 | 89 | 1010.2 |
| 20260509231631 | 56 | 88 | 0.0 | 0.0 | 0.00 | 0.12 | 0.12 | 89 | 1010.2 |
| 20260509230827 | 56 | 94 | 0.0 | 0.0 | 0.00 | 0.12 | 0.12 | 89 | 1010.2 |
| 20260509225548 | 57 | 112 | 0.0 | 0.0 | 0.00 | 0.12 | 0.12 | 89 | 1010.3 |
| 20260509224455 | 57 | 108 | 0.0 | 0.0 | 0.00 | 0.12 | 0.12 | 89 | 1010.3 |
| 20260509223408 | 56 | 108 | 0.0 | 0.0 | 0.02 | 0.12 | 0.12 | 89 | 1010.3 |
| 20260509222604 | 56 | 108 | 0.0 | 0.0 | 0.08 | 0.12 | 0.12 | 88 | 1010.5 |
| 20260509221328 | 56 | 112 | 0.0 | 0.0 | 0.12 | 0.12 | 0.12 | 88 | 1010.6 |
| 20260509220309 | 56 | 16 | 0.0 | 0.0 | 0.12 | 0.12 | 0.12 | 88 | 1010.7 |
| 20260509215250 | 56 | 0 | 0.0 | 0.0 | 0.12 | 0.12 | 0.12 | 87 | 1010.6 |
| 20260509214234 | 56 | 0 | 0.0 | 0.0 | 0.12 | 0.12 | 0.12 | 85 | 1010.8 |
| 20260509213150 | 57 | 0 | 0.0 | 0.0 | 0.10 | 0.10 | 0.10 | 84 | 1010.8 |
| 20260509212344 | 58 | 316 | 0.0 | 0.0 | 0.04 | 0.04 | 0.04 | 82 | 1010.8 |
| 20260509211301 | 58 | 310 | 0.0 | 0.0 | 0.00 | 0.00 | 0.00 | 81 | 1010.7 |
| 20260509210031 | 59 | 322 | 0.0 | 0.0 | 0.00 | 0.00 | 0.00 | 80 | 1010.6 |
| 20260509205009 | 59 | 312 | 1.0 | 0.0 | 0.00 | 0.00 | 0.00 | 79 | 1010.5 |